period_start,C,m1,H,J0,J1,J2,J3,J4,J5,JA,JB,JC,JD,JJ,JK,JN,#
2014-05-30 00:03:48,0.02,1.15,0.00,22.32,26.88,29.81,9.54,40.27,1003.06,2040.99,3041.00,2997.60,3223.96,500.23,491.26,47.97,0000 0000 0000 0000 000000
2014-05-30 00:08:49,0.03,1.15,0.00,22.32,26.88,29.82,9.50,40.34,1003.20,2040.99,3040.64,2997.10,3223.53,499.96,491.20,48.01,0000 0000 0000 0000 000000
2014-05-30 00:13:50,0.02,1.15,0.00,22.30,26.88,29.81,9.51,40.43,1003.19,2040.99,3040.03,2997.00,3223.02,499.68,491.06,48.05,0000 0000 0000 0000 000000
2014-05-30 00:18:51,0.00,1.15,0.00,22.32,26.88,29.81,9.48,40.61,1003.07,2040.99,3039.94,2996.96,3222.98,499.58,490.74,48.09,0000 0000 0000 0000 000000
2014-05-30 00:23:52,0.06,1.16,0.00,22.34,26.88,29.81,9.51,40.56,1003.04,2040.99,3039.19,2996.27,3222.37,500.22,491.38,48.13,0000 0000 0000 0000 000000
2014-05-30 00:28:53,0.00,1.16,0.00,22.31,26.88,29.80,9.58,40.51,1003.00,2040.99,3038.97,2996.01,3222.01,500.53,491.72,48.17,0000 0000 0000 0000 000000
2014-05-30 00:33:54,0.01,1.16,0.00,22.30,26.88,29.80,9.49,40.35,1003.03,2040.99,3038.28,2995.99,3221.98,500.13,491.45,48.21,0000 0000 0000 0000 000000
2014-05-30 00:38:55,0.04,1.16,0.00,22.33,26.89,29.79,9.50,40.23,1003.16,2040.99,3037.99,2995.63,3221.45,499.83,491.03,48.26,0000 0000 0000 0000 000000
2014-05-30 00:43:56,0.03,1.16,0.00,22.30,26.89,29.78,9.43,40.23,1003.21,2040.99,3037.43,2995.04,3221.01,499.78,491.20,48.30,0000 0000 0000 0000 000000
2014-05-30 00:48:57,0.00,1.16,0.00,22.32,26.89,29.79,9.55,40.38,1003.20,2040.99,3037.00,2994.99,3220.91,500.13,491.37,48.34,0000 0000 0000 0000 000000
2014-05-30 00:53:59,0.04,1.16,0.00,22.29,26.89,29.79,9.51,40.37,1003.20,2040.99,3036.55,2994.75,3220.18,500.36,491.60,48.38,0000 0000 0000 0000 000000
2014-05-30 00:58:59,0.02,1.17,0.00,22.29,26.89,29.78,9.53,40.44,1003.07,2040.99,3036.02,2994.07,3220.00,500.20,491.55,48.42,0000 0000 0000 0000 000000
2014-05-30 01:04:00,0.02,1.17,0.00,22.32,26.89,29.79,9.47,40.40,1003.04,2040.99,3035.56,2994.00,3219.76,499.72,490.91,48.46,0000 0000 0000 0000 000000
2014-05-30 01:09:01,0.02,1.17,0.00,22.30,26.89,29.78,9.50,40.35,1003.14,2040.99,3035.02,2993.88,3219.14,499.79,491.11,48.51,0000 0000 0000 0000 000000
2014-05-30 01:14:03,0.02,1.17,0.00,22.27,26.88,29.77,9.54,40.48,1003.27,2040.99,3034.87,2993.24,3219.00,499.91,491.19,48.55,0000 0000 0000 0000 000000
2014-05-30 01:19:04,0.02,1.17,0.00,22.27,26.88,29.77,9.51,40.40,1003.27,2040.99,3034.13,2993.01,3218.94,500.14,491.50,48.59,0000 0000 0000 0000 000000
2014-05-30 01:24:05,0.01,1.17,0.00,22.28,26.87,29.77,9.46,40.52,1003.33,2040.99,3033.99,2993.00,3218.43,499.87,491.16,48.63,0000 0000 0000 0000 000000
2014-05-30 01:29:06,0.03,1.17,0.00,22.25,26.87,29.76,9.53,40.27,1003.42,2040.99,3033.39,2992.74,3218.02,499.97,491.31,48.67,0000 0000 0000 0000 000000
2014-05-30 01:34:07,0.02,1.17,0.00,22.24,26.87,29.74,9.50,40.29,1003.43,2040.99,3033.01,2992.19,3218.00,499.82,491.40,48.71,0000 0000 0000 0000 000000
2014-05-30 01:39:07,0.00,1.17,0.00,22.25,26.87,29.76,9.53,40.39,1003.43,2040.99,3032.97,2992.00,3217.92,499.89,491.39,48.76,0000 0000 0000 0000 000000
2014-05-30 01:44:08,0.03,1.17,0.00,22.27,26.87,29.71,9.48,40.50,1003.43,2040.99,3032.47,2991.99,3217.37,500.06,491.55,48.80,0000 0000 0000 0000 000000
2014-05-30 01:49:10,0.01,1.17,0.00,22.25,26.87,29.71,9.44,40.51,1003.43,2040.99,3032.05,2991.98,3217.05,499.78,491.26,48.84,0000 0000 0000 0000 000000
2014-05-30 01:54:11,0.00,1.17,0.00,22.24,26.87,29.69,9.51,40.51,1003.43,2040.99,3032.00,2991.98,3217.00,499.69,491.32,48.88,0000 0000 0000 0000 000000
2014-05-30 01:59:12,0.03,1.17,0.00,22.26,26.86,29.69,9.53,40.51,1003.43,2040.99,3031.78,2991.59,3217.00,500.02,491.45,48.92,0000 0000 0000 0000 000000
2014-05-30 02:04:13,0.02,1.18,0.00,22.25,26.85,29.69,9.55,40.38,1003.43,2040.99,3031.13,2991.05,3216.90,499.83,491.34,48.96,0000 0000 0000 0000 000000
2014-05-30 02:09:15,0.01,1.18,0.00,22.26,26.85,29.69,9.52,40.48,1003.43,2040.99,3031.00,2991.00,3216.35,500.20,491.63,49.01,0000 0000 0000 0000 000000
2014-05-30 02:14:16,0.00,1.18,0.00,22.24,26.85,29.68,9.49,40.38,1003.43,2040.99,3030.90,2990.99,3216.01,499.97,491.62,49.05,0000 0000 0000 0000 000000
2014-05-30 02:19:17,0.01,1.18,0.00,22.24,26.85,29.67,9.48,40.52,1003.43,2040.99,3030.33,2990.92,3216.00,500.39,491.71,49.09,0000 0000 0000 0000 000000
2014-05-30 02:24:18,0.02,1.18,0.00,22.22,26.85,29.66,9.59,40.56,1003.44,2040.99,3030.02,2990.45,3215.99,500.45,491.94,49.13,0000 0000 0000 0000 000000
2014-05-30 02:29:19,0.02,1.18,0.00,22.23,26.85,29.65,9.60,40.57,1003.43,2040.99,3029.94,2990.03,3215.64,500.58,492.04,49.17,0000 0000 0000 0000 000000
2014-05-30 02:34:20,0.02,1.18,0.00,22.25,26.83,29.64,9.50,40.48,1003.43,2040.99,3029.34,2990.00,3215.06,499.85,491.33,49.21,0000 0000 0000 0000 000000
2014-05-30 02:39:21,0.00,1.18,0.00,22.27,26.82,29.60,9.50,40.63,1003.44,2040.99,3029.02,2990.00,3215.01,499.55,491.04,49.25,0000 0000 0000 0000 000000
2014-05-30 02:44:22,0.00,1.18,0.00,22.27,26.82,29.57,9.50,40.57,1003.45,2040.99,3028.99,2989.95,3215.00,500.15,491.84,49.30,0000 0000 0000 0000 000000
2014-05-30 02:49:23,0.03,1.18,0.00,22.27,26.82,29.58,9.47,40.48,1003.46,2040.99,3028.59,2989.51,3214.95,499.94,491.37,49.34,0000 0000 0000 0000 000000
2014-05-30 02:54:24,0.03,1.18,0.00,22.26,26.82,29.55,9.51,40.40,1003.46,2040.99,3028.08,2989.09,3214.61,499.87,491.36,49.38,0000 0000 0000 0000 000000
2014-05-30 02:59:25,0.01,1.18,0.00,22.26,26.82,29.51,9.54,40.54,1003.48,2041.00,3028.00,2989.02,3214.07,499.87,491.26,49.42,0000 0000 0000 0000 000000
2014-05-30 03:04:26,0.01,1.18,0.00,22.27,26.82,29.52,9.50,40.41,1003.59,2041.00,3027.79,2989.00,3214.01,500.33,491.89,49.46,0000 0000 0000 0000 000000
2014-05-30 03:09:27,0.01,1.19,0.00,22.29,26.82,29.54,9.46,40.40,1003.68,2041.01,3027.21,2988.97,3213.99,499.99,491.59,49.50,0000 0000 0000 0000 000000
2014-05-30 03:14:28,0.01,1.19,0.00,22.30,26.82,29.50,9.53,40.41,1003.77,2041.01,3027.00,2988.71,3213.93,500.01,491.67,49.55,0000 0000 0000 0000 000000
2014-05-30 03:19:29,0.04,1.19,0.00,22.29,26.82,29.48,9.49,40.53,1003.78,2041.01,3026.96,2988.15,3213.38,499.90,491.50,49.59,0000 0000 0000 0000 000000
2014-05-30 03:24:30,0.02,1.19,0.00,22.29,26.81,29.49,9.48,40.50,1003.73,2041.01,3026.34,2988.01,3213.05,499.81,491.41,49.63,0000 0000 0000 0000 000000
2014-05-30 03:29:31,0.00,1.19,0.00,22.31,26.80,29.45,9.50,40.36,1003.90,2041.02,3026.00,2988.00,3212.99,500.35,491.96,49.67,0000 0000 0000 0000 000000
2014-05-30 03:34:32,0.02,1.19,0.00,22.31,26.80,29.47,9.46,40.31,1003.92,2041.00,3025.64,2987.87,3212.86,499.62,491.23,49.71,0000 0000 0000 0000 000000
2014-05-30 03:39:33,0.04,1.19,0.00,22.34,26.80,29.48,9.47,40.49,1003.92,2041.00,3025.05,2987.23,3212.21,500.15,491.85,49.75,0000 0000 0000 0000 000000
2014-05-30 03:44:34,0.00,1.19,0.00,22.34,26.80,29.44,9.53,40.63,1003.92,2041.01,3024.98,2987.02,3212.02,499.91,491.64,49.80,0000 0000 0000 0000 000000
2014-05-30 03:49:35,0.02,1.19,0.00,22.35,26.80,29.42,9.53,40.48,1003.92,2041.00,3024.51,2986.99,3211.99,499.91,491.48,49.84,0000 0000 0000 0000 000000
2014-05-30 03:54:36,0.01,1.19,0.00,22.34,26.80,29.39,9.47,40.50,1003.92,2041.01,3024.01,2986.91,3211.80,500.00,491.46,49.88,0000 0000 0000 0000 000000
2014-05-30 03:59:37,0.02,0.67,0.00,22.34,26.81,29.37,8.33,35.60,1003.92,2041.50,3239.58,3136.80,3394.07,443.85,436.34,0.01,0000 0000 0000 0000 000002
2014-05-30 04:04:38,0.01,0.00,0.00,22.36,26.80,29.26,9.46,39.58,1003.92,2042.42,3517.09,3332.10,3633.10,499.83,491.41,0.03,0000 0000 0000 0000 000000
2014-05-30 04:09:39,0.01,0.00,0.00,22.37,26.80,29.27,9.54,39.61,1003.92,2042.54,3515.61,3331.74,3632.25,499.92,491.40,0.07,0000 0000 0000 0000 000000
2014-05-30 04:14:40,0.01,0.00,0.00,22.38,26.80,29.28,9.56,39.66,1003.93,2042.37,3514.84,3331.06,3631.65,500.25,491.84,0.11,0000 0000 0000 0000 000000
2014-05-30 04:19:41,0.01,0.00,0.00,22.39,26.80,29.27,9.55,39.70,1003.92,2042.23,3514.03,3330.99,3631.01,499.75,491.21,0.15,0000 0000 0000 0000 000000
2014-05-30 04:24:42,0.02,0.00,0.00,22.40,26.80,29.36,9.43,39.54,1003.92,2042.25,3513.46,3330.73,3630.74,499.69,491.05,0.19,0000 0000 0000 0000 000000
2014-05-30 04:29:43,0.03,0.00,0.00,22.42,26.80,29.29,9.51,39.60,1003.92,2042.24,3512.99,3330.09,3630.04,500.28,491.73,0.23,0000 0000 0000 0000 000000
2014-05-30 04:34:44,0.01,0.00,0.00,22.42,26.80,29.33,9.44,39.39,1003.92,2042.20,3512.35,3330.00,3629.96,499.98,491.40,0.28,0000 0000 0000 0000 000000
2014-05-30 04:39:45,0.02,0.00,0.00,22.42,26.80,29.31,9.39,39.48,1003.92,2042.21,3511.99,3329.98,3629.32,499.66,491.06,0.32,0000 0000 0000 0000 000000
2014-05-30 04:44:46,0.03,0.00,0.00,22.44,26.80,29.28,9.52,39.51,1003.92,2042.31,3511.69,3329.64,3629.02,500.06,491.70,0.36,0000 0000 0000 0000 000000
2014-05-30 04:49:47,0.02,0.01,0.00,22.45,26.80,29.32,9.50,39.52,1003.92,2042.26,3511.06,3329.07,3628.92,499.96,491.39,0.40,0000 0000 0000 0000 000000
2014-05-30 04:54:48,0.01,0.01,0.00,22.47,26.80,29.27,9.43,39.57,1003.92,2042.19,3510.57,3328.99,3628.21,499.73,491.12,0.44,0000 0000 0000 0000 000000
2014-05-30 04:59:49,0.02,0.01,0.00,22.49,26.80,29.26,9.44,39.56,1003.92,2042.36,3510.03,3328.98,3628.01,499.94,491.32,0.49,0000 0000 0000 0000 000000
2014-05-30 05:04:50,0.02,0.01,0.00,22.49,26.80,29.26,9.56,39.52,1003.92,2042.25,3509.93,3328.57,3627.88,500.63,491.79,0.53,0000 0000 0000 0000 000000
2014-05-30 05:09:51,0.03,0.01,0.00,22.50,26.81,29.27,9.54,39.52,1003.92,2042.20,3509.23,3328.04,3627.11,500.14,491.66,0.57,0000 0000 0000 0000 000000
2014-05-30 05:14:53,0.00,0.01,0.00,22.52,26.82,29.26,9.48,39.53,1003.92,2042.21,3508.93,3328.00,3627.00,500.20,491.42,0.61,0000 0000 0000 0000 000000
2014-05-30 05:19:53,0.03,0.01,0.00,22.54,26.82,29.26,9.51,39.52,1003.92,2042.24,3508.09,3327.77,3626.44,500.45,491.66,0.65,0000 0000 0000 0000 000000
2014-05-30 05:24:55,0.02,0.01,0.00,22.53,26.82,29.28,9.49,39.50,1003.93,2042.20,3507.77,3327.11,3626.02,500.10,491.45,0.69,0000 0000 0000 0000 000000
2014-05-30 05:29:56,0.01,0.01,0.00,22.52,26.82,29.29,9.51,39.50,1003.93,2042.17,3507.06,3327.00,3625.90,500.18,491.47,0.74,0000 0000 0000 0000 000000
2014-05-30 05:34:57,0.03,0.01,0.00,22.50,26.82,29.29,9.50,39.52,1003.98,2042.09,3506.65,3326.79,3625.13,499.92,491.30,0.78,0000 0000 0000 0000 000000
2014-05-30 05:39:59,0.03,0.02,0.00,22.50,26.82,29.29,9.44,39.49,1004.22,2042.10,3506.00,3326.05,3624.88,499.90,491.38,0.82,0000 0000 0000 0000 000000
2014-05-30 05:45:00,0.03,0.02,0.00,22.49,26.82,29.33,9.49,39.49,1004.39,2042.17,3505.48,3326.00,3624.23,500.12,491.71,0.86,0000 0000 0000 0000 000000
2014-05-30 05:50:01,0.03,0.02,0.00,22.49,26.82,29.35,9.48,39.61,1004.40,2042.11,3504.79,3325.49,3623.92,499.86,491.36,0.90,0000 0000 0000 0000 000000
2014-05-30 05:55:01,0.03,0.02,0.00,22.51,26.82,29.32,9.50,39.58,1004.35,2042.09,3503.97,3325.00,3623.08,499.51,491.06,0.95,0000 0000 0000 0000 000000
2014-05-30 06:00:02,0.04,0.02,0.00,22.51,26.82,29.31,9.52,39.49,1004.27,2042.07,3503.15,3324.61,3622.78,500.49,492.02,0.99,0000 0000 0000 0000 000000
2014-05-30 06:05:03,0.05,0.02,0.00,22.52,26.82,29.28,9.53,39.60,1004.27,2042.14,3502.26,3324.02,3622.04,500.34,491.81,1.03,0000 0000 0000 0000 000000
2014-05-30 06:10:04,-0.01,0.02,0.00,22.52,26.82,29.29,9.43,39.45,1004.24,2042.09,3501.95,3323.93,3621.90,499.59,491.10,1.07,0000 0000 0000 0000 000000
2014-05-30 06:15:05,0.05,0.03,0.00,22.50,26.82,29.29,9.54,39.62,1004.31,2042.08,3501.22,3323.31,3621.17,499.95,491.49,1.11,0000 0000 0000 0000 000000
2014-05-30 06:20:07,0.01,0.03,0.00,22.49,26.82,29.30,9.49,39.38,1004.39,2042.08,3500.91,3323.01,3620.99,500.23,491.83,1.15,0000 0000 0000 0000 000000
2014-05-30 06:25:08,0.02,0.03,0.00,22.52,26.82,29.29,9.47,39.67,1004.39,2042.06,3500.11,3322.95,3620.68,499.64,491.27,1.20,0000 0000 0000 0000 000000
2014-05-30 06:30:09,0.03,0.03,0.00,22.52,26.82,29.26,9.44,39.45,1004.40,2042.04,3499.85,3322.26,3620.03,499.85,491.45,1.24,0000 0000 0000 0000 000000
2014-05-30 06:35:10,0.01,0.03,0.00,22.54,26.82,29.27,9.49,39.48,1004.41,2042.05,3499.12,3322.01,3619.98,499.90,491.49,1.28,0000 0000 0000 0000 000000
2014-05-30 06:40:11,0.01,0.03,0.00,22.55,26.82,29.26,9.53,39.65,1004.39,2042.09,3499.00,3321.99,3619.66,499.94,491.46,1.32,0000 0000 0000 0000 000000
2014-05-30 06:45:12,0.02,0.03,0.00,22.57,26.82,29.26,9.54,39.70,1004.33,2042.07,3498.50,3321.87,3619.04,500.53,491.84,1.36,0000 0000 0000 0000 000000
2014-05-30 06:50:13,0.02,0.03,0.00,22.59,26.82,29.25,9.52,39.55,1004.29,2042.03,3498.01,3321.15,3618.99,500.03,491.37,1.41,0000 0000 0000 0000 000000
2014-05-30 06:55:14,0.02,0.03,0.00,22.59,26.82,29.26,9.51,39.47,1004.27,2042.05,3497.67,3321.01,3618.71,500.15,491.28,1.45,0000 0000 0000 0000 000000
2014-05-30 07:00:15,0.01,0.03,0.00,22.61,26.82,29.24,9.44,39.63,1004.41,2042.04,3497.03,3320.98,3618.07,500.10,491.45,1.49,0000 0000 0000 0000 000000
2014-05-30 07:05:16,0.01,0.03,0.00,22.64,26.82,29.24,9.38,39.39,1004.41,2042.05,3496.96,3320.80,3618.00,499.92,491.24,1.53,0000 0000 0000 0000 000000
2014-05-30 07:10:18,0.03,0.03,0.00,22.67,26.82,29.25,9.50,39.62,1004.42,2042.09,3496.33,3320.23,3617.89,500.21,491.53,1.57,0000 0000 0000 0000 000000
2014-05-30 07:15:18,0.01,0.04,0.00,22.67,26.82,29.24,9.40,39.53,1004.49,2042.08,3496.00,3320.01,3617.29,499.88,491.08,1.61,0000 0000 0000 0000 000000
2014-05-30 07:20:19,0.02,0.04,0.00,22.67,26.82,29.26,9.53,39.72,1004.46,2042.06,3495.52,3320.00,3617.00,500.18,491.31,1.66,0000 0000 0000 0000 000000
2014-05-30 07:25:20,0.01,0.04,0.00,22.67,26.82,29.26,9.44,39.38,1004.42,2042.03,3495.01,3319.68,3616.92,499.88,491.09,1.70,0000 0000 0000 0000 000000
2014-05-30 07:30:21,0.03,0.04,0.00,22.69,26.82,29.27,9.50,39.60,1004.44,2042.07,3494.75,3319.15,3616.40,500.18,491.43,1.74,0000 0000 0000 0000 000000
2014-05-30 07:35:23,0.01,0.04,0.00,22.70,26.83,29.27,9.52,39.52,1004.68,2042.04,3494.10,3319.01,3616.03,500.20,491.55,1.78,0000 0000 0000 0000 000000
2014-05-30 07:40:24,0.00,0.04,0.00,22.72,26.85,29.27,9.44,39.57,1004.68,2042.03,3493.99,3318.98,3615.99,499.62,490.92,1.82,0000 0000 0000 0000 000000
2014-05-30 07:45:25,0.02,0.04,0.00,22.74,26.85,29.28,9.42,39.33,1004.71,2042.03,3493.44,3318.74,3615.68,499.73,491.02,1.87,0000 0000 0000 0000 000000
2014-05-30 07:50:26,0.03,0.04,0.00,22.75,26.85,29.27,9.49,39.45,1004.89,2042.03,3493.01,3318.10,3615.06,499.92,491.37,1.91,0000 0000 0000 0000 000000
2014-05-30 07:55:27,0.01,0.04,0.00,22.76,26.85,29.28,9.41,39.48,1004.90,2042.00,3492.62,3317.99,3614.97,499.63,490.96,1.95,0000 0000 0000 0000 000000
2014-05-30 08:00:28,0.01,0.04,0.00,22.78,26.87,29.29,9.40,39.31,1004.90,2042.00,3492.03,3317.91,3614.48,499.85,491.04,1.99,0000 0000 0000 0000 000000
2014-05-30 08:05:29,0.01,0.04,0.00,22.79,26.87,29.29,9.39,39.26,1004.91,2042.00,3491.99,3317.53,3614.02,499.59,490.83,2.03,0000 0000 0000 0000 000000
2014-05-30 08:10:30,0.02,0.05,0.00,22.81,26.88,29.31,9.52,39.43,1004.90,2042.00,3491.41,3317.03,3614.00,500.05,491.27,2.07,0000 0000 0000 0000 000000
2014-05-30 08:15:31,0.01,0.05,0.00,22.83,26.90,29.32,9.49,39.42,1004.90,2042.00,3491.00,3316.99,3613.69,500.27,491.62,2.12,0000 0000 0000 0000 000000
2014-05-30 08:20:32,0.04,0.05,0.00,22.84,26.90,29.34,9.48,39.52,1004.90,2042.00,3490.59,3316.70,3613.05,500.00,491.25,2.16,0000 0000 0000 0000 000000
2014-05-30 08:25:34,0.01,0.05,0.00,22.85,26.91,29.35,9.49,39.54,1004.90,2042.00,3490.01,3316.07,3612.97,500.24,491.46,2.20,0000 0000 0000 0000 000000
2014-05-30 08:30:35,0.02,0.05,0.00,22.87,26.92,29.36,9.47,39.35,1004.90,2042.00,3489.70,3316.00,3612.62,499.84,491.13,2.24,0000 0000 0000 0000 000000
2014-05-30 08:35:36,0.02,0.05,0.00,22.87,26.93,29.38,9.45,39.52,1004.90,2042.00,3489.03,3315.88,3612.04,499.80,490.99,2.28,0000 0000 0000 0000 000000
2014-05-30 08:40:36,0.04,0.05,0.00,22.89,26.95,29.38,9.43,39.45,1004.91,2042.00,3488.53,3315.12,3611.76,499.87,491.02,2.33,0000 0000 0000 0000 000000
2014-05-30 08:45:37,0.01,0.05,0.00,22.89,26.95,29.38,9.43,39.38,1004.92,2041.99,3488.01,3314.99,3611.04,499.92,491.14,2.37,0000 0000 0000 0000 000000
2014-05-30 08:50:39,0.03,0.05,0.00,22.89,26.97,29.41,9.47,39.69,1004.90,2041.98,3487.46,3314.58,3610.92,499.85,491.18,2.41,0000 0000 0000 0000 000000
2014-05-30 08:55:40,0.03,0.05,0.00,22.91,26.97,29.41,9.45,39.34,1004.98,2041.97,3486.97,3314.03,3610.13,499.70,490.87,2.45,0000 0000 0000 0000 000000
2014-05-30 09:00:41,0.02,0.06,0.00,22.92,26.98,29.42,9.43,39.51,1005.04,2041.95,3486.29,3313.95,3609.98,499.61,490.86,2.49,0000 0000 0000 0000 000000
2014-05-30 09:05:42,0.02,0.06,0.00,22.92,27.00,29.44,9.49,39.45,1004.91,2041.90,3485.98,3313.37,3609.46,499.88,490.81,2.53,0000 0000 0000 0000 000000
2014-05-30 09:10:43,0.02,0.06,0.00,22.94,27.00,29.45,9.49,39.49,1004.93,2041.86,3485.35,3313.02,3609.02,499.79,490.89,2.58,0000 0000 0000 0000 000000
2014-05-30 09:15:44,-0.00,0.06,0.00,22.94,27.02,29.47,9.44,39.33,1005.00,2041.74,3484.89,3312.91,3608.70,500.13,491.27,2.62,0000 0000 0000 0000 000000
2014-05-30 09:20:45,0.02,0.06,0.00,22.96,27.02,29.47,9.43,39.29,1004.97,2041.54,3484.07,3312.15,3608.04,499.54,490.74,2.66,0000 0000 0000 0000 000000
2014-05-30 09:25:46,-0.02,0.06,0.00,22.95,27.03,29.48,9.44,39.39,1004.94,2041.19,3483.78,3312.00,3607.91,499.45,490.62,2.70,0000 0000 0000 0000 000000
2014-05-30 09:30:47,0.03,0.06,0.00,22.97,27.05,29.50,9.42,39.34,1004.93,2041.19,3483.06,3311.86,3607.18,499.63,490.70,2.74,0000 0000 0000 0000 000000
2014-05-30 09:35:48,0.02,0.06,0.00,22.97,27.05,29.51,9.45,39.36,1005.05,2041.11,3482.65,3311.16,3606.98,499.50,490.76,2.79,0000 0000 0000 0000 000000
2014-05-30 09:40:49,0.02,0.06,0.00,22.97,27.07,29.51,9.44,39.28,1005.26,2041.06,3482.03,3310.99,3606.35,499.75,490.93,2.83,0000 0000 0000 0000 000000
2014-05-30 09:45:51,0.02,0.06,0.00,22.98,27.07,29.52,9.51,39.48,1005.32,2041.01,3481.70,3310.62,3606.00,500.12,491.20,2.87,0000 0000 0000 0000 000000
2014-05-30 09:50:52,0.03,0.06,0.00,22.98,27.08,29.54,9.47,39.37,1005.30,2041.01,3481.03,3310.05,3605.72,500.05,491.30,2.91,0000 0000 0000 0000 000000
2014-05-30 09:55:53,0.02,0.06,0.00,22.99,27.10,29.54,9.45,39.38,1005.34,2041.01,3480.62,3309.99,3605.04,499.87,491.15,2.95,0000 0000 0000 0000 000000
2014-05-30 10:00:54,0.02,0.07,0.00,22.99,27.10,29.56,9.44,39.49,1005.39,2041.00,3480.01,3309.46,3604.93,499.64,490.85,2.99,0000 0000 0000 0000 000000
2014-05-30 10:05:55,0.02,0.07,0.00,22.99,27.11,29.57,9.52,39.45,1005.39,2041.00,3479.75,3309.03,3604.28,500.35,491.51,3.04,0000 0000 0000 0000 000000
2014-05-30 10:10:57,0.01,0.07,0.00,22.99,27.12,29.58,9.51,39.38,1005.39,2041.00,3479.04,3308.98,3604.00,499.85,490.99,3.08,0000 0000 0000 0000 000000
2014-05-30 10:15:58,0.01,0.07,0.00,23.00,27.12,29.59,9.48,39.32,1005.40,2041.00,3478.84,3308.66,3603.89,499.92,491.08,3.12,0000 0000 0000 0000 000000
2014-05-30 10:20:59,0.04,0.07,0.00,23.00,27.13,29.60,9.53,39.34,1005.40,2041.00,3478.09,3308.06,3603.13,500.39,491.58,3.16,0000 0000 0000 0000 000000
2014-05-30 10:26:00,0.01,0.07,0.00,23.01,27.15,29.60,9.45,39.42,1005.41,2041.00,3477.73,3308.00,3602.99,499.96,491.10,3.20,0000 0000 0000 0000 000000
2014-05-30 10:31:01,0.02,0.07,0.00,23.00,27.15,29.61,9.52,39.46,1005.42,2041.00,3477.06,3307.84,3602.66,500.14,491.48,3.25,0000 0000 0000 0000 000000
2014-05-30 10:36:02,0.03,0.07,0.00,23.00,27.15,29.61,9.49,39.38,1005.43,2041.00,3476.84,3307.10,3602.03,499.91,491.33,3.29,0000 0000 0000 0000 000000
2014-05-30 10:41:03,0.01,0.07,0.00,23.00,27.16,29.61,9.41,39.45,1005.46,2041.00,3476.13,3307.00,3601.98,500.05,491.22,3.33,0000 0000 0000 0000 000000
2014-05-30 10:46:05,0.01,0.07,0.00,23.02,27.17,29.63,9.50,39.44,1005.41,2041.00,3475.99,3306.97,3601.60,500.20,491.58,3.37,0000 0000 0000 0000 000000
2014-05-30 10:51:06,0.04,0.08,0.00,23.02,27.17,29.63,9.46,39.39,1005.43,2040.99,3475.48,3306.42,3601.02,499.80,490.96,3.41,0000 0000 0000 0000 000000
2014-05-30 10:56:07,0.02,0.08,0.00,23.02,27.17,29.65,9.48,39.55,1005.45,2040.99,3474.84,3306.00,3600.70,500.13,491.36,3.45,0000 0000 0000 0000 000000
2014-05-30 11:01:08,0.02,0.08,0.00,23.02,27.18,29.65,9.45,39.66,1005.53,2040.98,3474.13,3305.86,3600.05,499.81,491.13,3.50,0000 0000 0000 0000 000000
2014-05-30 11:06:09,0.02,0.08,0.00,23.01,27.20,29.64,9.50,39.41,1005.68,2040.98,3473.98,3305.15,3599.99,500.24,491.54,3.54,0000 0000 0000 0000 000000
2014-05-30 11:11:11,0.02,0.08,0.00,23.02,27.20,29.66,9.45,39.36,1005.59,2040.97,3473.45,3305.02,3599.78,499.96,491.26,3.58,0000 0000 0000 0000 000000
2014-05-30 11:16:12,0.01,0.08,0.00,23.01,27.20,29.66,9.47,39.53,1005.75,2040.96,3473.01,3304.99,3599.10,499.85,491.25,3.62,0000 0000 0000 0000 000000
2014-05-30 11:21:13,0.01,0.08,0.00,23.01,27.20,29.66,9.45,39.42,1005.76,2040.96,3472.86,3304.76,3599.00,499.79,491.40,3.66,0000 0000 0000 0000 000000
2014-05-30 11:26:14,0.03,0.08,0.00,23.01,27.20,29.67,9.50,39.32,1005.64,2040.94,3472.12,3304.14,3598.92,500.17,491.58,3.71,0000 0000 0000 0000 000000
2014-05-30 11:31:15,0.01,0.08,0.00,23.00,27.21,29.67,9.54,39.57,1005.46,2040.94,3472.00,3304.01,3598.30,500.06,491.19,3.75,0000 0000 0000 0000 000000
2014-05-30 11:36:16,0.01,0.08,0.00,23.00,27.22,29.67,9.43,39.39,1005.42,2040.94,3471.61,3304.00,3598.01,499.81,490.91,3.79,0000 0000 0000 0000 000000
2014-05-30 11:41:17,-0.01,0.08,0.00,22.99,27.22,29.69,9.46,39.48,1005.49,2040.84,3471.02,3303.77,3597.94,499.70,491.03,3.83,0000 0000 0000 0000 000000
2014-05-30 11:46:18,0.03,0.08,0.00,22.99,27.22,29.69,9.52,39.48,1005.41,2040.67,3470.93,3303.11,3597.31,499.88,491.00,3.87,0000 0000 0000 0000 000000
2014-05-30 11:51:19,0.01,0.09,0.00,22.99,27.22,29.69,9.46,39.48,1005.40,2040.68,3470.17,3303.00,3597.01,500.03,491.25,3.91,0000 0000 0000 0000 000000
2014-05-30 11:56:19,0.02,0.09,0.00,22.99,27.22,29.69,9.45,39.40,1005.52,2040.84,3470.00,3302.99,3597.00,499.94,491.25,3.96,0000 0000 0000 0000 000000
2014-05-30 12:01:21,-0.01,0.09,0.00,22.99,27.22,29.69,9.50,39.36,1005.44,2040.82,3469.89,3302.93,3596.89,500.03,491.15,4.00,0000 0000 0000 0000 000000
2014-05-30 12:06:22,0.02,0.09,0.00,22.97,27.22,29.69,9.45,39.45,1005.46,2040.61,3469.16,3302.30,3596.18,499.75,491.03,4.04,0000 0000 0000 0000 000000
2014-05-30 12:11:23,0.02,0.09,0.00,22.97,27.23,29.70,9.47,39.43,1005.47,2040.64,3469.00,3302.01,3596.00,500.25,491.52,4.08,0000 0000 0000 0000 000000
2014-05-30 12:16:24,0.01,0.09,0.00,22.98,27.24,29.70,9.49,39.48,1005.58,2040.63,3468.64,3302.00,3595.97,500.47,491.90,4.12,0000 0000 0000 0000 000000
2014-05-30 12:21:26,0.03,0.09,0.00,22.97,27.24,29.71,9.51,39.47,1005.59,2040.70,3468.09,3301.97,3595.68,499.93,491.33,4.17,0000 0000 0000 0000 000000
2014-05-30 12:26:27,-0.02,0.09,0.00,22.97,27.25,29.71,9.44,39.33,1005.68,2040.46,3467.99,3301.55,3595.08,499.77,491.13,4.21,0000 0000 0000 0000 000000
2014-05-30 12:31:28,0.01,0.09,0.00,22.97,27.25,29.71,9.52,39.51,1005.76,2040.24,3467.43,3301.02,3594.99,500.16,491.55,4.25,0000 0000 0000 0000 000000
2014-05-30 12:36:29,0.02,0.09,0.00,22.97,27.25,29.71,9.49,39.55,1005.77,2040.45,3467.03,3301.00,3594.84,499.89,491.48,4.29,0000 0000 0000 0000 000000
2014-05-30 12:41:30,0.01,0.09,0.00,22.97,27.25,29.72,9.47,39.39,1005.78,2040.39,3466.98,3300.98,3594.16,500.09,491.56,4.33,0000 0000 0000 0000 000000
2014-05-30 12:46:31,-0.00,0.09,0.00,22.95,27.25,29.71,9.50,39.39,1005.86,2040.17,3466.33,3300.55,3594.01,500.26,492.00,4.37,0000 0000 0000 0000 000000
2014-05-30 12:51:32,0.02,0.09,0.00,22.95,27.25,29.72,9.47,39.47,1005.79,2040.18,3466.00,3300.06,3593.95,500.06,491.55,4.42,0000 0000 0000 0000 000000
2014-05-30 12:56:33,0.01,0.09,0.00,22.94,27.25,29.72,9.47,39.55,1005.67,2040.10,3465.78,3300.00,3593.39,499.80,491.31,4.46,0000 0000 0000 0000 000000
2014-05-30 13:01:35,0.05,0.09,0.00,22.94,27.25,29.71,9.47,39.49,1005.67,2040.41,3465.12,3300.00,3593.05,500.03,491.43,4.50,0000 0000 0000 0000 000000
2014-05-30 13:06:36,-0.02,0.09,0.00,22.94,27.25,29.71,9.41,39.33,1005.84,2040.18,3464.99,3299.66,3592.99,499.45,490.97,4.54,0000 0000 0000 0000 000000